EW3904 Weather Reports


time (UTC)temp
C
wind
direction
speed
KPH
gust
KPH
rain 1hr
cm
rain 24hr
cm
rain mn
cm
humidity
%
barometer
mb
20260504203221 25 136 3.2 9.7 0.00 0.00 0.00 34 1014.5
20260504201224 24 240 3.2 9.7 0.00 0.00 0.00 35 1014.6
20260504200221 25 174 6.4 11.3 0.00 0.00 0.00 34 1014.7
20260504195221 24 142 4.8 14.5 0.00 0.00 0.00 33 1014.9
20260504194221 24 202 8.0 11.3 0.00 0.00 0.00 35 1015.2
20260504193221 24 182 0.0 8.0 0.00 0.00 0.00 35 1015.3
20260504192221 24 209 6.4 8.0 0.00 0.00 0.00 38 1015.4
20260504191221 23 158 4.8 9.7 0.00 0.00 0.00 35 1015.4
20260504190220 23 213 3.2 4.8 0.00 0.00 0.00 36 1015.5
20260504185220 23 268 6.4 12.9 0.00 0.00 0.00 35 1015.7
20260504183220 23 89 3.2 8.0 0.00 0.00 0.00 37 1016.0
20260504182220 23 226 6.4 9.7 0.00 0.00 0.00 36 1016.0
20260504181220 23 180 6.4 14.5 0.00 0.00 0.00 40 1016.3
20260504175220 23 146 4.8 11.3 0.00 0.00 0.00 38 1016.4
20260504173219 22 256 4.8 9.7 0.00 0.00 0.00 42 1016.7
20260504172219 22 273 6.4 16.1 0.00 0.00 0.00 42 1016.7
20260504170219 22 5 1.6 6.4 0.00 0.00 0.00 39 1016.7
20260504160219 21 134 0.0 6.4 0.00 0.00 0.00 45 1017.5
20260504150218 20 285 6.4 11.3 0.00 0.00 0.00 48 1018.1
20260504141218 18 232 3.2 12.9 0.00 0.00 0.00 50 1018.1
20260504140218 18 259 9.7 11.3 0.00 0.00 0.00 57 1018.1
20260504130217 15 248 3.2 4.8 0.00 0.00 0.00 65 1017.8
20260504120217 9 112 0.0 0.0 0.00 0.00 0.00 89 1017.6
20260504110217 6 293 0.0 0.0 0.00 0.00 0.00 93 1017.1
20260504100216 6 293 0.0 0.0 0.00 0.00 0.00 92 1017.4
20260504070215 7 293 0.0 0.0 0.00 0.00 0.00 89 1017.6
20260504060215 8 293 0.0 0.0 0.00 0.00 0.00 87 1017.8
20260504050214 9 293 0.0 3.2 0.00 0.00 0.00 83 1018.3
20260504045214 9 293 0.0 0.0 0.00 0.00 0.00 82 1018.4
20260504044214 9 293 0.0 0.0 0.00 0.00 0.00 83 1018.2
20260504043214 10 293 0.0 0.0 0.00 0.00 0.00 82 1018.2
20260504042214 10 293 0.0 3.2 0.00 0.00 0.00 82 1018.2
20260504041214 10 293 0.0 0.0 0.00 0.00 0.00 83 1018.3
20260504035214 10 293 0.0 0.0 0.00 0.00 0.00 80 1018.4
20260504034214 11 293 0.0 0.0 0.00 0.00 0.00 79 1018.4
20260504032214 11 293 0.0 0.0 0.00 0.00 0.00 78 1018.2
20260504031214 11 293 0.0 0.0 0.00 0.00 0.00 78 1018.1
20260504030213 11 293 0.0 0.0 0.00 0.00 0.00 78 1018.2
20260504025214 11 293 0.0 0.0 0.00 0.00 0.00 79 1018.1
20260504024213 12 293 0.0 3.2 0.00 0.00 0.00 75 1018.0
20260504023213 11 299 0.0 3.2 0.00 0.00 0.00 76 1018.0
20260504022213 12 299 0.0 1.6 0.00 0.00 0.00 74 1017.7
20260504021213 12 240 1.6 1.6 0.00 0.00 0.00 74 1017.6
20260504013213 13 254 0.0 1.6 0.00 0.00 0.00 67 1017.3
20260504012213 13 254 0.0 0.0 0.00 0.00 0.00 66 1017.0
20260504011213 14 254 0.0 3.2 0.00 0.00 0.00 65 1016.9
20260504010212 15 254 0.0 3.2 0.00 0.00 0.00 63 1016.9
20260504004212 16 254 1.6 3.2 0.00 0.00 0.00 58 1016.7
20260504003212 16 254 0.0 1.6 0.00 0.00 0.00 57 1016.6
20260504002213 17 254 1.6 3.2 0.00 0.00 0.00 52 1016.6
20260504001212 18 248 0.0 1.6 0.00 0.00 0.00 50 1016.6
20260504000212 19 248 1.6 3.2 0.00 0.00 0.00 45 1016.5
20260503235213 19 263 1.6 8.0 0.00 0.00 0.00 42 1016.4
20260503234213 20 280 3.2 8.0 0.00 0.00 0.00 36 1016.5
20260503233212 20 304 6.4 6.4 0.00 0.00 0.00 36 1016.5
20260503232212 21 281 6.4 8.0 0.00 0.00 0.00 33 1016.4
20260503231212 21 284 8.0 11.3 0.00 0.00 0.00 35 1016.4
20260503230211 21 275 11.3 14.5 0.00 0.00 0.00 34 1016.5
20260503225212 21 256 9.7 11.3 0.00 0.00 0.00 33 1016.4
20260503224212 21 302 6.4 12.9 0.00 0.00 0.00 33 1016.4
20260503223211 21 304 6.4 12.9 0.00 0.00 0.00 35 1016.5
20260503222212 21 260 11.3 16.1 0.00 0.00 0.00 33 1016.4
20260503221212 21 248 9.7 12.9 0.00 0.00 0.00 33 1016.6
20260503220212 21 250 4.8 12.9 0.00 0.00 0.00 34 1016.9
20260503215212 21 269 19.3 19.3 0.00 0.00 0.00 35 1016.8
20260503213211 21 250 6.4 14.5 0.00 0.00 0.00 32 1016.8
20260503212212 21 319 4.8 12.9 0.00 0.00 0.00 33 1016.7
20260503211211 21 265 12.9 14.5 0.00 0.00 0.00 32 1016.8
20260503210211 21 247 11.3 12.9 0.00 0.00 0.00 32 1016.8
20260503205211 21 273 4.8 12.9 0.00 0.00 0.00 32 1016.8